Погода в Лужны

Россия / Тульская область     53°20′24″N   37°02′08″E
В апреле 2022 года жителям России запретили посещать сайт meteo.paraplan.net по решению Генеральной прокуратуры. Аудитория сайта уменьшилась в 10 раз. Владельцы сайта не видят смысла в поддержке погодного сервера в таких условиях. Сайт будет закрыт в октябре.
темп.,
°C
ветер,
м/с
пор.,
м/с
влажн.,
%
обл.,
%
осадки,
мм/ч
давл.,
гПа
погр.,
м
25 сентября, вс
вс2500:00+6з6993100 3.8 10021001
03:00+5з5895100 5.6 1002896
06:00+5з5795100 0.4 1002867
09:00+6з5993100 0.8 10031001
12:00+6з71094100 0.2 1005750
15:00+7з71194100 0.2 1006870
18:00+6з71194100 0.6 10081022
21:00+6з71193100 0.8 10091012
26 сентября, пн
пн2600:00+6з51291100 0.0 1010722
03:00+6з41093100 0.1 1010442
06:00+6з41089100 0.1 1010343
09:00+7зюз4985100 0.1 1012317
12:00+11зсз586061 0.0 10121254
15:00+12зсз585364 0.1 10121789
18:00+9з33687 0.0 101331
21:00+7зюз227847 0.0 101420
27 сентября, вт
вт2700:00+6ю2281100 0.0 101310
03:00+6ююв3383100 0.0 101235
06:00+6вюв228548 0.0 101223
09:00+9юв468525 0.0 1011365
12:00+9вюв5987100 0.1 1011431
15:00+9вюв5786100 0.1 1011388
18:00+8вюв4891100 0.0 1010372
21:00+8в51094100 0.4 1009402
28 сентября, ср
ср2800:00+8в61196100 4.3 1007408
03:00+8вюв61198100 7.6 1005312
06:00+9вюв51298100 2.3 1003405
09:00+10юв61297100 3.9 1002459
12:00+11юв51194100 1.6 1000554
15:00+11юв5995100 2.5 1000500
18:00+11ююв3898100 0.3 1001291
21:00+12юз3898100 0.5 1002266
29 сентября, чт
чт2900:00+11зюз51096100 0.2 1004456
03:00+11зюз41096100 0.2 1006543
06:00+9з4995100 0.0 1009295
09:00+11з5777100 0.0 1011846
12:00+13з35695 0.0 1013905
15:00+16зюз345914 0.0 10141147
18:00+13зюз2273100 0.0 101610
21:00+12юв1174100 0.0 101710